User: anonymous   Login
Location: Unspecified
(0.0000°N, 0.0000°E)
Time: 22:19:54
(UTC+00:00)
Language:

RS-15 - Orbit

View from above orbital plane
View from above orbital plane
View from above satellite
View from above satellite

Ground track
Ground track

The orbit data is extracted from the following two-line orbital elements,

1 23439U 94085A   17326.93237727 -.00000044 +00000-0 -43566-4 0  9994
2 23439 064.8164 322.4133 0164030 218.5639 150.6823 11.27566837943319
Epoch (UTC): 22 November 2017 22:22:37
Eccentricity: 0.0164030
inclination: 64.8164°
perigee height: 1884 km
apogee height: 2160 km
right ascension of ascending node: 322.4133°
argument of perigee: 218.5639°
revolutions per day: 11.27566837
mean anomaly at epoch: 150.6823°
orbit number at epoch: 94331

The dashed part of the orbit path shows where the satellite is in the earth's shadow,  

DLR